Miscellaneous Local Product
Issued by NWS Hastings, NE

Home | Current Version | Previous Version | Text Only | Print | Product List | Glossary Off
Versions: 1 2 3 4 5 6 7 8 9 10 11 12 13 14 15 16 17 18 19 20 21 22 23 24 25 26 27 28 29 30 31 32 33 34 35 36 37 38 39 40 41 42 43 44 45 46 47 48 49 50

059
AXUS43 KGID 051202
MISGRI

GID CWA HOURLY WEATHER ROUNDUP
NATIONAL WEATHER SERVICE HASTINGS NE
600 AM CST FRI FEB 05 2016

NOTE: "FAIR" INDICATES FEW OR NO CLOUDS BELOW 12,000 FEET WITH NO
SIGNIFICANT WEATHER AND/OR OBSTRUCTIONS TO VISIBILITY.

...SOUTH CENTRAL NEBRASKA...

CITY           SKY/WX    TMP DP  RH WIND       PRES   REMARKS
GRAND ISLAND   LGT SNOW  24  20  84 S13       30.26S FOG     WCI  12
HASTINGS       LGT SNOW  22  18  85 S8        30.26F FOG     WCI  12
ORD            LGT SNOW  26  24  92 S3        30.19S FOG
YORK           CLOUDY    21  18  86 S8        30.29S WCI  12
AURORA         LGT SNOW  23  19  84 S12       30.27S WCI  12
LEXINGTON      LGT SNOW  30  28  91 W9        30.22S WCI  22
HOLDREGE       LGT SNOW  25  23  93 SW8       30.24S WCI  16
HEBRON         MOCLDY    17  14  89 CALM      30.34R

...NEBRASKA PANHANDLE...

CITY           SKY/WX    TMP DP  RH WIND       PRES   REMARKS
CHADRON        CLEAR     28  20  71 W14       30.21R WCI  17
ALLIANCE       CLEAR     19  13  77 W12       30.17R WCI   7
SCOTTSBLUFF    CLEAR     16  12  84 N5        30.23R WCI   9
SIDNEY         CLOUDY    24  16  71 NW15      30.21R WCI  11

...WESTERN AND NORTH CENTRAL NEBRASKA...

CITY           SKY/WX    TMP DP  RH WIND       PRES   REMARKS
VALENTINE      CLOUDY    26  22  84 W7        30.14R WCI  18
AINSWORTH      CLOUDY    29  25  85 SW6       30.14R WCI  23
ONEILL         CLOUDY    24  18  77 S8        30.17R WCI  15
BROKEN BOW     LGT SNOW  30  28  92 W9        30.18S FOG     WCI  22
IMPERIAL       CLOUDY    29  26  89 W13       30.23R WCI  19
NORTH PLATTE   CLOUDY    31  27  85 W15       30.19S WCI  20
MCCOOK         CLOUDY    27  23  85 W6        30.25R WCI  20

...EASTERN NEBRASKA...

CITY           SKY/WX    TMP DP  RH WIND       PRES   REMARKS
NORFOLK        CLOUDY    23  16  74 S13       30.24F WCI  11
SO SIOUX CITY  CLOUDY     8   3  80 SE7       30.31R WCI  -3
TEKAMAH        CLOUDY    10   8  92 S5        30.34R FOG     WCI   2
COLUMBUS       CLOUDY    19  10  68 SE6       30.29S WCI  11
ALBION         FLURRIES  24  18  80 SE6       30.24R WCI  16
OMAHA EPPLEY   CLOUDY    19  16  88 SE8       30.34S WCI   9
OFFUTT AFB     CLOUDY    18  16  95 CALM      30.34S
MILLARD        CLOUDY    18  15  90 CALM      30.34S
LINCOLN        CLOUDY    15  13  91 S5        30.35S WCI   8
NEBRASKA CITY  CLOUDY    19  17  91 S5        30.35R WCI  12
BEATRICE       CLOUDY    19  17  90 CALM      30.35R
FALLS CITY     CLOUDY    22  19  89 CALM      30.37R

...NORTHERN KANSAS...

CITY           SKY/WX    TMP DP  RH WIND       PRES   REMARKS
GOODLAND       CLOUDY    27  23  85 W10       30.24R WCI  17
HILL CITY      CLOUDY    24  18  77 NW5       30.30S WCI  18
NORTON         CLOUDY    25  18  74 SW3       30.26S
PHILLIPSBURG   CLOUDY    21  18  86 CALM      30.31R
SMITH CENTER   LGT SNOW  19  18  93 CALM      30.32S
BELOIT         CLOUDY    19  18  93 CALM      30.35S
HAYS           CLOUDY    19   9  63 S6        30.32R WCI  11
RUSSELL        CLOUDY    20  17  88 S6        30.32R WCI  12
CONCORDIA      CLOUDY    21  17  84 CALM      30.34R
SALINA         CLOUDY    24  19  81 CALM      30.37R
TOPEKA         CLOUDY    24  20  84 CALM      30.40R



USA.gov is the U.S. government's official web portal to all federal, state and local government web resources and services.